SL-16 DEB, 22405

Orbit data source: Space-Track

SL-16 DEB, 22405 is space debris in LEO originally from a launch on Fri, 25 Dec 1992 UTC launched from the Tyuratam Missile And Space Complex (TTMTR). Debris objects in space refer to the collection of defunct objects orbiting the Earth. Examples of debris include non-operational satellites, rocket bodies, and fragments generated from explosions, collisions, or faulty payload assembly.

Loading next visibility...
Identifier
22405, 1992-093CW
Orbit
LEO
Country
Flag of CISCIS
Related business
Manufacturer
Unknown
Mission
Spacecraft
Bus & Motor
Unknown
Mass
Unknown
Launch date (UTC)
1992-12-25 (33 years ago)
Launch vehicle
Unknown
Launch site
Tyuratam Missile And Space Complex (TTMTR)
Object type
Payload
Rocket body
Debris
Shape & HBR
Unknown shape, 0.3 m
Radar Cross Section
Medium (>0.1 m² and <1 m²)

Expand to show TLE details & history
Last TLE update: 11 hours ago

TLE from 11 hours ago
0 SL-16 DEB
1 22405U 92093CW  26127.00837046  .00000194  00000-0  68919-4 0  9993
2 22405  71.0361 339.3941 0123992 297.4373  61.4198 14.42577542728643
Epoch: 2026-05-07T00:12Z
TLE epoch observation values (Epoch: 2026-05-07T00:12:03.207Z)
Latitude
-0.00002°
Longitude
111.52005°
Altitude
710.994 km
Speed
7.522 km/s
True Right ascension
22h 37m 34s
True Declination
0° 00' 00"
Sunlit
Object was in daylight at epoch
Visualization orbit readout
Latitude
Unknown
Longitude
Unknown
Altitude
Unknown
Speed
Unknown
Apparent Right ascension
Unknown
Apparent Declination
Unknown
Sunlit
N/A
Visualization observer readout
Local Sidereal Time
19:09:22
Azimuth
Unknown
Elevation
Unknown
Doppler factor
Unknown
Orbital elements
Apogee altitude
836.246 km
Perigee altitude
659.532 km
Semi-major axis
7,126.026 km
Eccentricity
0.0124
Inclination
71.0361°
RAAN
339.3941°
Arg. of periapsis
297.4373°
True anomaly
62.67673°
Mean anomaly
61.4198°
Eccentric anomaly
62.04734°
Mean motion
3.60805 °/min
Orbital period
99.78 mins
BSTAR
0.000068919
Loading maneuver chart data...
Computing Atmospheric mass density...
Loading historical data...
Loading historical data...
Loading historical data...
Loading historical data...
Loading historical data...
Loading historical data...
Loading historical data...

Documentation

Showing up to 5 results
|